Year,Month,Day,Hour,Minute,Value (Times are PST for temperature in C)
2013,03,26,12,07,21.40
2013,03,26,12,12,19.00
2013,03,26,12,13,18.20
2013,03,26,12,14,17.10
2013,03,26,12,15,16.10
2013,03,26,12,16,15.20
2013,03,26,12,17,14.30
2013,03,26,12,18,13.60
2013,03,26,12,19,13.20
2013,03,26,12,20,12.90
2013,03,26,12,21,12.60
2013,03,26,12,22,12.40
2013,03,26,12,23,12.10
2013,03,26,12,24,11.90
2013,03,26,12,25,11.80
2013,03,26,12,26,11.60
2013,03,26,12,27,11.50
2013,03,26,12,28,11.40
2013,03,26,12,29,11.20
2013,03,26,12,30,11.20
2013,03,26,12,31,11.10
2013,03,26,12,32,11.10
2013,03,26,12,33,11.10
2013,03,26,12,34,11.10
2013,03,26,12,35,11.10
2013,03,26,12,36,11.00
2013,03,26,12,37,11.00
2013,03,26,12,38,11.00
2013,03,26,12,39,10.90
2013,03,26,12,40,10.90
2013,03,26,12,41,10.90
2013,03,26,12,42,10.90
2013,03,26,12,43,10.90
2013,03,26,12,44,11.00
2013,03,26,12,45,11.10
2013,03,26,12,46,11.10
2013,03,26,12,47,11.20
2013,03,26,12,48,11.20
2013,03,26,12,49,11.30
2013,03,26,12,50,11.40
2013,03,26,12,51,11.50
2013,03,26,12,52,11.50
2013,03,26,12,53,11.60
2013,03,26,12,54,11.50
2013,03,26,12,55,11.40
2013,03,26,12,56,11.30
2013,03,26,12,57,11.30
2013,03,26,12,58,11.30
2013,03,26,12,59,11.40
2013,03,26,13,00,11.40
2013,03,26,13,01,11.40
2013,03,26,13,02,11.50
2013,03,26,13,03,11.40
2013,03,26,13,04,11.30
2013,03,26,13,05,11.40
2013,03,26,13,06,11.40
2013,03,26,13,07,11.40
2013,03,26,13,08,11.40
2013,03,26,13,09,11.40
2013,03,26,13,10,11.50
2013,03,26,13,11,11.60
2013,03,26,13,12,11.60
2013,03,26,13,13,11.70
2013,03,26,13,14,11.70
2013,03,26,13,15,11.50
2013,03,26,13,16,11.40
2013,03,26,13,17,11.30
2013,03,26,13,18,11.30
2013,03,26,13,19,11.30
2013,03,26,13,20,11.30
2013,03,26,13,21,11.30
2013,03,26,13,22,11.30
2013,03,26,13,23,11.30
2013,03,26,13,24,11.40
2013,03,26,13,25,11.60
2013,03,26,13,26,11.80
2013,03,26,13,27,11.80
2013,03,26,13,28,11.80
2013,03,26,13,29,11.80
2013,03,26,13,30,11.90
2013,03,26,13,31,11.90
2013,03,26,13,32,11.90
2013,03,26,13,33,12.00
2013,03,26,13,34,12.00
2013,03,26,13,35,11.90
2013,03,26,13,36,12.00
2013,03,26,13,37,12.10
2013,03,26,13,38,12.20
2013,03,26,13,39,12.20
2013,03,26,13,40,12.00
2013,03,26,13,41,11.90
2013,03,26,13,42,11.80
2013,03,26,13,43,11.70
2013,03,26,13,44,11.80
2013,03,26,13,45,11.90
2013,03,26,13,46,12.00
2013,03,26,13,47,12.10
2013,03,26,13,48,12.10
2013,03,26,13,49,12.10
2013,03,26,13,50,12.10
2013,03,26,13,51,12.10
2013,03,26,13,52,12.10
2013,03,26,13,53,12.30
2013,03,26,13,54,12.30
2013,03,26,13,55,12.40
2013,03,26,13,56,12.40
2013,03,26,13,57,12.30
2013,03,26,13,58,12.30
2013,03,26,13,59,12.30
2013,03,26,14,00,12.20
2013,03,26,14,01,12.20
2013,03,26,14,02,12.20
2013,03,26,14,03,12.20
2013,03,26,14,04,12.20
2013,03,26,14,05,12.20
2013,03,26,14,06,12.20
2013,03,26,14,07,12.20
2013,03,26,14,08,12.20
2013,03,26,14,09,12.10
2013,03,26,14,10,12.10
2013,03,26,14,11,12.20
2013,03,26,14,12,12.20
2013,03,26,14,13,12.10
2013,03,26,14,14,12.10
2013,03,26,14,15,12.10
2013,03,26,14,16,12.10
2013,03,26,14,17,12.10
2013,03,26,14,18,12.20
2013,03,26,14,19,12.30
2013,03,26,14,20,12.40
2013,03,26,14,21,12.50
2013,03,26,14,22,12.60
2013,03,26,14,23,12.70
2013,03,26,14,24,12.70
2013,03,26,14,25,12.70
2013,03,26,14,26,12.80
2013,03,26,14,27,12.90
2013,03,26,14,28,12.90
2013,03,26,14,29,12.90
2013,03,26,14,30,12.80
2013,03,26,14,31,12.70
2013,03,26,14,32,12.80
2013,03,26,14,33,12.80
2013,03,26,14,34,12.80
2013,03,26,14,35,12.80
2013,03,26,14,36,12.90
2013,03,26,14,37,13.00
2013,03,26,14,38,13.10
2013,03,26,14,39,13.00
2013,03,26,14,40,13.10
2013,03,26,14,41,13.10
2013,03,26,14,42,13.10
2013,03,26,14,43,13.10
2013,03,26,14,44,13.10
2013,03,26,14,45,13.10
2013,03,26,14,46,13.20
2013,03,26,14,47,13.20
2013,03,26,14,48,13.20
2013,03,26,14,49,13.10
2013,03,26,14,50,13.10
2013,03,26,14,51,13.10
2013,03,26,14,52,13.10
2013,03,26,14,53,13.10
2013,03,26,14,54,13.20
2013,03,26,14,55,13.30
2013,03,26,14,56,13.30
2013,03,26,14,57,13.30
2013,03,26,14,58,13.30
2013,03,26,14,59,13.30
2013,03,26,15,00,13.30
2013,03,26,15,01,13.30
2013,03,26,15,02,13.30
2013,03,26,15,03,13.30
2013,03,26,15,04,13.40
2013,03,26,15,05,13.40
2013,03,26,15,06,13.50
2013,03,26,15,07,13.50
2013,03,26,15,08,13.40
2013,03,26,15,09,13.50
2013,03,26,15,10,13.60
2013,03,26,15,11,13.70
2013,03,26,15,12,13.80
2013,03,26,15,13,13.80
2013,03,26,15,14,13.80
2013,03,26,15,15,13.90
2013,03,26,15,16,14.00
2013,03,26,15,17,14.00
2013,03,26,15,18,13.90
2013,03,26,15,19,13.80
2013,03,26,15,20,13.70
2013,03,26,15,21,13.60
2013,03,26,15,22,13.60
2013,03,26,15,23,13.60
2013,03,26,15,24,13.50
2013,03,26,15,25,13.50
2013,03,26,15,26,13.60
2013,03,26,15,27,13.60
2013,03,26,15,28,13.50
2013,03,26,15,29,13.50
2013,03,26,15,30,13.50
2013,03,26,15,31,13.40
2013,03,26,15,32,13.40
2013,03,26,15,33,13.50
2013,03,26,15,34,13.50
2013,03,26,15,35,13.60
2013,03,26,15,36,13.60
2013,03,26,15,37,13.60
2013,03,26,15,38,13.60
2013,03,26,15,39,13.70
2013,03,26,15,40,13.80
2013,03,26,15,41,13.80
2013,03,26,15,42,13.80
2013,03,26,15,43,13.70
2013,03,26,15,44,13.60
2013,03,26,15,45,13.50
2013,03,26,15,46,13.40
2013,03,26,15,47,13.30
2013,03,26,15,48,13.30
2013,03,26,15,49,13.30
2013,03,26,15,50,13.40
2013,03,26,15,51,13.50
2013,03,26,15,52,13.50
2013,03,26,15,53,13.60
2013,03,26,15,54,13.70
2013,03,26,15,55,13.70
2013,03,26,15,56,13.80
2013,03,26,15,57,13.90
2013,03,26,15,58,13.90
2013,03,26,15,59,14.00
2013,03,26,16,00,14.00
2013,03,26,16,01,14.00
2013,03,26,16,02,13.90
2013,03,26,16,03,13.90
2013,03,26,16,04,13.90
2013,03,26,16,05,13.90
2013,03,26,16,06,13.80
2013,03,26,16,07,13.80
2013,03,26,16,08,13.80
2013,03,26,16,09,13.80
2013,03,26,16,10,13.80
2013,03,26,16,11,13.80
2013,03,26,16,12,13.80
2013,03,26,16,13,13.80
2013,03,26,16,14,13.80
2013,03,26,16,15,13.80
2013,03,26,16,16,13.90
2013,03,26,16,17,13.90
2013,03,26,16,18,13.90
2013,03,26,16,19,13.90
2013,03,26,16,20,14.00
2013,03,26,16,21,14.00
2013,03,26,16,22,13.90
2013,03,26,16,23,13.90
2013,03,26,16,24,14.00
2013,03,26,16,25,14.00
2013,03,26,16,26,14.10
2013,03,26,16,27,14.10
2013,03,26,16,28,14.00
2013,03,26,16,29,13.90
2013,03,26,16,30,13.90
2013,03,26,16,31,13.80
2013,03,26,16,32,13.90
2013,03,26,16,33,13.90
2013,03,26,16,34,14.00
2013,03,26,16,35,14.00
2013,03,26,16,36,14.00
2013,03,26,16,37,14.00
2013,03,26,16,38,14.10
2013,03,26,16,39,14.10
2013,03,26,16,40,14.10
2013,03,26,16,41,14.10
2013,03,26,16,42,14.00
2013,03,26,16,43,14.00
2013,03,26,16,44,14.00
2013,03,26,16,45,14.00
2013,03,26,16,46,13.90
2013,03,26,16,47,13.90
2013,03,26,16,48,13.90
2013,03,26,16,49,13.90
2013,03,26,16,50,13.80
2013,03,26,16,51,13.70
2013,03,26,16,52,13.60
2013,03,26,16,53,13.60
2013,03,26,16,54,13.70
2013,03,26,16,55,13.70
2013,03,26,16,56,13.70
2013,03,26,16,57,13.70
2013,03,26,16,58,13.70
2013,03,26,16,59,13.70
2013,03,26,17,00,13.70
2013,03,26,17,01,13.70
2013,03,26,17,02,13.70
2013,03,26,17,03,13.60
2013,03,26,17,04,13.60
2013,03,26,17,05,13.60
2013,03,26,17,06,13.60
2013,03,26,17,07,13.60
2013,03,26,17,08,13.60
2013,03,26,17,09,13.60
2013,03,26,17,10,13.60
2013,03,26,17,11,13.50
2013,03,26,17,12,13.60
2013,03,26,17,13,13.60
2013,03,26,17,14,13.60
2013,03,26,17,15,13.60
2013,03,26,17,16,13.60
2013,03,26,17,17,13.60
2013,03,26,17,18,13.50
2013,03,26,17,19,13.50
2013,03,26,17,20,13.50
2013,03,26,17,21,13.50
2013,03,26,17,22,13.50
2013,03,26,17,23,13.50
2013,03,26,17,24,13.50
2013,03,26,17,25,13.50
2013,03,26,17,26,13.50
2013,03,26,17,27,13.60
2013,03,26,17,28,13.60
2013,03,26,17,29,13.60
2013,03,26,17,30,13.60
2013,03,26,17,31,13.60
2013,03,26,17,32,13.70
2013,03,26,17,33,13.70
2013,03,26,17,34,13.80
2013,03,26,17,35,13.80
2013,03,26,17,36,13.80
2013,03,26,17,37,13.80
2013,03,26,17,38,13.80
2013,03,26,17,39,13.80
2013,03,26,17,40,13.80
2013,03,26,17,41,13.80
2013,03,26,17,42,13.80
2013,03,26,17,43,13.80
2013,03,26,17,44,13.70
2013,03,26,17,45,13.70
2013,03,26,17,46,13.60
2013,03,26,17,47,13.60
2013,03,26,17,48,13.60
2013,03,26,17,49,13.50
2013,03,26,17,50,13.50
2013,03,26,17,51,13.50
2013,03,26,17,52,13.50
2013,03,26,17,53,13.60
2013,03,26,17,54,13.60
2013,03,26,17,55,13.60
2013,03,26,17,56,13.60
2013,03,26,17,57,13.60
2013,03,26,17,58,13.60
2013,03,26,17,59,13.60
2013,03,26,18,00,13.60
2013,03,26,18,01,13.70
2013,03,26,18,02,13.70
2013,03,26,18,03,13.70
2013,03,26,18,04,13.60
2013,03,26,18,05,13.60
2013,03,26,18,06,13.60
2013,03,26,18,07,13.50
2013,03,26,18,08,13.50
2013,03,26,18,09,13.50
2013,03,26,18,10,13.50
2013,03,26,18,11,13.50
2013,03,26,18,12,13.60
2013,03,26,18,13,13.60
2013,03,26,18,14,13.60
2013,03,26,18,15,13.60
2013,03,26,18,16,13.60
2013,03,26,18,17,13.60
2013,03,26,18,18,13.50
2013,03,26,18,19,13.50
2013,03,26,18,20,13.50
2013,03,26,18,21,13.50
2013,03,26,18,22,13.50
2013,03,26,18,23,13.50
2013,03,26,18,24,13.40
2013,03,26,18,25,13.40
2013,03,26,18,26,13.40
2013,03,26,18,27,13.40
2013,03,26,18,28,13.30
2013,03,26,18,29,13.30
2013,03,26,18,30,13.20
2013,03,26,18,31,13.10
2013,03,26,18,32,13.10
2013,03,26,18,33,13.00
2013,03,26,18,34,12.90
2013,03,26,18,35,12.90
2013,03,26,18,36,12.90
2013,03,26,18,37,12.90
2013,03,26,18,38,12.90
2013,03,26,18,39,12.90
2013,03,26,18,40,12.90
2013,03,26,18,41,12.90
2013,03,26,18,42,13.00
2013,03,26,18,43,13.00
2013,03,26,18,44,13.00
2013,03,26,18,45,13.00
2013,03,26,18,46,13.00
2013,03,26,18,47,13.00
2013,03,26,18,48,13.00
2013,03,26,18,49,12.90
2013,03,26,18,50,12.90
2013,03,26,18,51,12.90
2013,03,26,18,52,12.90
2013,03,26,18,53,12.90
2013,03,26,18,54,12.90
2013,03,26,18,55,12.80
2013,03,26,18,56,12.80
2013,03,26,18,57,12.80
2013,03,26,18,58,12.80
2013,03,26,18,59,12.80
2013,03,26,19,00,12.80
2013,03,26,19,01,12.70
2013,03,26,19,02,12.70
2013,03,26,19,03,12.70
2013,03,26,19,04,12.70
2013,03,26,19,05,12.70
2013,03,26,19,06,12.70
2013,03,26,19,07,12.70
2013,03,26,19,08,12.70
2013,03,26,19,09,12.70
2013,03,26,19,10,12.70
2013,03,26,19,11,12.70
2013,03,26,19,12,12.70
2013,03,26,19,13,12.70
2013,03,26,19,14,12.70
2013,03,26,19,15,12.70
2013,03,26,19,16,12.70
2013,03,26,19,17,12.70
2013,03,26,19,18,12.70
2013,03,26,19,19,12.60
2013,03,26,19,20,12.60
2013,03,26,19,21,12.50
2013,03,26,19,22,12.50
2013,03,26,19,23,12.50
2013,03,26,19,24,12.50
2013,03,26,19,25,12.40
2013,03,26,19,26,12.30
2013,03,26,19,27,12.30
2013,03,26,19,28,12.20
2013,03,26,19,29,12.20
2013,03,26,19,30,12.20
2013,03,26,19,31,12.10
2013,03,26,19,32,12.10
2013,03,26,19,33,12.10
2013,03,26,19,34,12.00
2013,03,26,19,35,12.00
2013,03,26,19,36,11.90
2013,03,26,19,37,11.90
2013,03,26,19,38,11.90
2013,03,26,19,39,11.90
2013,03,26,19,40,11.90
2013,03,26,19,41,11.90
2013,03,26,19,42,11.80
2013,03,26,19,43,11.80
2013,03,26,19,44,11.80
2013,03,26,19,45,11.80
2013,03,26,19,46,11.80
2013,03,26,19,47,11.80
2013,03,26,19,48,11.80
2013,03,26,19,49,11.80
2013,03,26,19,50,11.80
2013,03,26,19,51,11.80
2013,03,26,19,52,11.80
2013,03,26,19,53,11.80
2013,03,26,19,54,11.70
2013,03,26,19,55,11.70
2013,03,26,19,56,11.70
2013,03,26,19,57,11.60
2013,03,26,19,58,11.60
2013,03,26,19,59,11.50
2013,03,26,20,00,11.40
2013,03,26,20,01,11.40
2013,03,26,20,02,11.30
2013,03,26,20,03,11.30
2013,03,26,20,04,11.20
2013,03,26,20,05,11.20
2013,03,26,20,06,11.20
2013,03,26,20,07,11.10
2013,03,26,20,08,11.10
2013,03,26,20,09,11.10
2013,03,26,20,10,11.10
2013,03,26,20,11,11.00
2013,03,26,20,12,11.00
2013,03,26,20,13,11.00
2013,03,26,20,14,11.00
2013,03,26,20,15,11.00
2013,03,26,20,16,11.10
2013,03,26,20,17,11.10
2013,03,26,20,18,11.10
2013,03,26,20,19,11.10
2013,03,26,20,20,11.10
2013,03,26,20,21,11.10
2013,03,26,20,22,11.10
2013,03,26,20,23,11.10
2013,03,26,20,24,11.10
2013,03,26,20,25,11.00
2013,03,26,20,26,11.00
2013,03,26,20,27,10.90
2013,03,26,20,28,10.90
2013,03,26,20,29,10.80
2013,03,26,20,30,10.80
2013,03,26,20,31,10.70
2013,03,26,20,32,10.70
2013,03,26,20,33,10.60
2013,03,26,20,34,10.60
2013,03,26,20,35,10.50
2013,03,26,20,36,10.50
2013,03,26,20,37,10.40
2013,03,26,20,38,10.40
2013,03,26,20,39,10.40
2013,03,26,20,40,10.40
2013,03,26,20,41,10.30
2013,03,26,20,42,10.30
2013,03,26,20,43,10.30
2013,03,26,20,44,10.30
2013,03,26,20,45,10.20
2013,03,26,20,46,10.20
2013,03,26,20,47,10.20
2013,03,26,20,48,10.10
2013,03,26,20,49,10.10
2013,03,26,20,50,10.00
2013,03,26,20,51,10.00
2013,03,26,20,52,9.90
2013,03,26,20,53,9.90
2013,03,26,20,54,9.90
2013,03,26,20,55,9.80
2013,03,26,20,56,9.80
2013,03,26,20,57,9.80
2013,03,26,20,58,9.80
2013,03,26,20,59,9.80
2013,03,26,21,00,9.80
2013,03,26,21,01,9.70
2013,03,26,21,02,9.70
2013,03,26,21,03,9.70
2013,03,26,21,04,9.70
2013,03,26,21,05,9.70
2013,03,26,21,06,9.70
2013,03,26,21,07,9.70
2013,03,26,21,08,9.70
2013,03,26,21,09,9.70
2013,03,26,21,10,9.70
2013,03,26,21,11,9.60
2013,03,26,21,12,9.60
2013,03,26,21,13,9.60
2013,03,26,21,14,9.60
2013,03,26,21,15,9.60
2013,03,26,21,16,9.60
2013,03,26,21,17,9.60
2013,03,26,21,18,9.50
2013,03,26,21,19,9.50
2013,03,26,21,20,9.50
2013,03,26,21,21,9.40
2013,03,26,21,22,9.40
2013,03,26,21,23,9.40
2013,03,26,21,24,9.40
2013,03,26,21,25,9.40
2013,03,26,21,26,9.30
2013,03,26,21,27,9.30
2013,03,26,21,28,9.30
2013,03,26,21,29,9.30
2013,03,26,21,30,9.30
2013,03,26,21,31,9.30
2013,03,26,21,32,9.30
2013,03,26,21,33,9.30
2013,03,26,21,34,9.30
2013,03,26,21,35,9.20
2013,03,26,21,36,9.20
2013,03,26,21,37,9.20
2013,03,26,21,38,9.20
2013,03,26,21,39,9.20
2013,03,26,21,40,9.20
2013,03,26,21,41,9.20
2013,03,26,21,42,9.20
2013,03,26,21,43,9.20
2013,03,26,21,44,9.20
2013,03,26,21,45,9.20
2013,03,26,21,46,9.10
2013,03,26,21,47,9.10
2013,03,26,21,48,9.10
2013,03,26,21,49,9.10
2013,03,26,21,50,9.10
2013,03,26,21,51,9.00
2013,03,26,21,52,9.00
2013,03,26,21,53,9.00
2013,03,26,21,54,9.00
2013,03,26,21,55,8.90
2013,03,26,21,56,8.90
2013,03,26,21,57,8.90
2013,03,26,21,58,8.90
2013,03,26,21,59,8.90
2013,03,26,22,00,8.90
2013,03,26,22,01,8.80
2013,03,26,22,02,8.80
2013,03,26,22,03,8.80
2013,03,26,22,04,8.80
2013,03,26,22,05,8.80
2013,03,26,22,06,8.80
2013,03,26,22,07,8.80
2013,03,26,22,08,8.80
2013,03,26,22,09,8.80
2013,03,26,22,10,8.80
2013,03,26,22,11,8.80
2013,03,26,22,12,8.70
2013,03,26,22,13,8.80
2013,03,26,22,14,8.70
2013,03,26,22,15,8.70
2013,03,26,22,16,8.70
2013,03,26,22,17,8.70
2013,03,26,22,18,8.70
2013,03,26,22,19,8.70
2013,03,26,22,20,8.70
2013,03,26,22,21,8.70
2013,03,26,22,22,8.70
2013,03,26,22,23,8.70
2013,03,26,22,24,8.70
2013,03,26,22,25,8.70
2013,03,26,22,26,8.70
2013,03,26,22,27,8.70
2013,03,26,22,28,8.60
2013,03,26,22,29,8.60
2013,03,26,22,30,8.70
2013,03,26,22,31,8.70
2013,03,26,22,32,8.70
2013,03,26,22,33,8.70
2013,03,26,22,34,8.70
2013,03,26,22,35,8.70
2013,03,26,22,36,8.70
2013,03,26,22,37,8.70
2013,03,26,22,38,8.60
2013,03,26,22,39,8.60
2013,03,26,22,40,8.60
2013,03,26,22,41,8.60
2013,03,26,22,42,8.50
2013,03,26,22,43,8.50
2013,03,26,22,44,8.50
2013,03,26,22,45,8.40
2013,03,26,22,46,8.40
2013,03,26,22,47,8.40
2013,03,26,22,48,8.40
2013,03,26,22,49,8.30
2013,03,26,22,50,8.30
2013,03,26,22,51,8.30
2013,03,26,22,52,8.30
2013,03,26,22,53,8.30
2013,03,26,22,54,8.30
2013,03,26,22,55,8.30
2013,03,26,22,56,8.20
2013,03,26,22,57,8.20
2013,03,26,22,58,8.20
2013,03,26,22,59,8.20
2013,03,26,23,00,8.20
2013,03,26,23,01,8.10
2013,03,26,23,02,8.10
2013,03,26,23,03,8.00
2013,03,26,23,04,8.00
2013,03,26,23,05,8.00
2013,03,26,23,06,7.90
2013,03,26,23,07,7.90
2013,03,26,23,08,7.90
2013,03,26,23,09,7.90
2013,03,26,23,10,7.80
2013,03,26,23,11,7.80
2013,03,26,23,12,7.80
2013,03,26,23,13,7.80
2013,03,26,23,14,7.80
2013,03,26,23,15,7.70
2013,03,26,23,16,7.70
2013,03,26,23,17,7.70
2013,03,26,23,18,7.70
2013,03,26,23,19,7.70
2013,03,26,23,20,7.70
2013,03,26,23,21,7.60
2013,03,26,23,22,7.60
2013,03,26,23,23,7.60
2013,03,26,23,24,7.60
2013,03,26,23,25,7.60
2013,03,26,23,26,7.50
2013,03,26,23,27,7.50
2013,03,26,23,28,7.50
2013,03,26,23,29,7.40
2013,03,26,23,30,7.40
2013,03,26,23,31,7.40
2013,03,26,23,32,7.40
2013,03,26,23,33,7.40
2013,03,26,23,34,7.40
2013,03,26,23,35,7.30
2013,03,26,23,36,7.30
2013,03,26,23,37,7.30
2013,03,26,23,38,7.30
2013,03,26,23,39,7.30
2013,03,26,23,40,7.40
2013,03,26,23,41,7.40
2013,03,26,23,42,7.40
2013,03,26,23,43,7.40
2013,03,26,23,44,7.40
2013,03,26,23,45,7.40
2013,03,26,23,46,7.40
2013,03,26,23,47,7.40
2013,03,26,23,48,7.40
2013,03,26,23,49,7.40
2013,03,26,23,50,7.40
2013,03,26,23,51,7.40
2013,03,26,23,52,7.40
2013,03,26,23,53,7.40
2013,03,26,23,54,7.40
2013,03,26,23,55,7.40
2013,03,26,23,56,7.40
2013,03,26,23,57,7.40
2013,03,26,23,58,7.40
2013,03,26,23,59,7.40
